Temperature
15 15 15 15 15 15 15 15 15 15 15 15 15 15 15 15 15 15 15 15 15 15 15 15 16 16 16 16 16 16 16 16 16 16 16 15 15 15 15 15 15 15 15
15 15 15 15 15 15 15 15 15 15 15 15 15 15 15 15 15 15 15 15 15 15 15 15 15 15 15 15 15 15 16 16 16 16 15 15 15 15 15 15 15 15 15
15 15 15 15 15 15 15 15 15 15 15 15 15 15 15 15 15 15 15 15 15 15 15 15 15 15 15 15 15 15 15 15 15 15 15 15 15 15 15 15 15 15 15
15 15 15 15 14 14 14 14 14 14 14 14 14 14 14 14 14 15 15 15 15 15 15 15 15 15 15 15 15 15 15 15 15 15 15 15 15 15 14 14 14 14 14
15 15 15 14 14 14 14 14 14 14 14 14 14 14 14 14 14 14 14 14 14 15 15 15 15 14 14 14 14 15 15 15 15 15 15 15 14 14 14 14 14 14 14
15 14 14 14 14 14 14 14 14 14 14 14 14 14 14 14 14 14 14 14 14 14 14 14 14 14 14 14 14 14 14 14 14 14 14 14 14 14 14 14 14 14 14
14 14 14 14 14 14 14 14 14 14 13 13 14 14 14 14 14 14 14 14 14 14 14 14 14 14 14 14 14 14 14 14 14 14 14 14 14 14 14 14 13 13 13
14 14 14 14 14 14 14 14 13 13 13 13 13 13 13 13 13 13 14 14 14 13 14 14 14 14 14 14 14 14 14 14 14 14 14 13 13 13 13 13 13 13 13
14 14 14 14 14 14 13 13 13 13 13 13 13 13 13 13 13 13 13 13 13 13 13 13 13 13 13 13 13 13 13 13 13 13 13 13 13 13 13 13 13 13 13
14 14 14 13 13 13 13 13 13 13 13 13 13 13 13 13 12 12 13 13 13 13 13 13 13 13 13 13 13 13 13 13 13 13 13 13 13 13 13 13 13 13 13
13 13 13 13 13 13 13 13 13 13 13 13 13 13 13 13 12 12 12 12 12 12 12 13 13 13 13 13 13 13 13 13 13 13 13 13 12 12 12 12 12 12 12
13 13 13 13 13 13 13 13 13 13 13 13 13 13 13 12 12 12 12 12 12 12 12 12 12 12 12 13 13 12 13 13 13 12 12 12 12 12 12 12 12 12 12
13 13 13 13 13 13 12 12 12 13 12 12 12 12 12 12 12 12 12 12 12 12 12 12 12 12 12 12 12 12 12 12 12 12 12 12 12 12 12 12 12 12 12
12 12 12 12 12 12 12 12 12 12 12 12 12 12 12 12 12 12 12 12 11 11 11 11 12 12 12 12 12 12 12 12 12 12 12 12 12 12 12 12 12 12 11
12 12 12 12 12 12 12 12 12 12 12 12 12 12 12 12 12 12 12 12 12 11 11 11 11 11 11 11 12 12 11 11 11 11 11 11 11 11 11 11 11 11 11
12 12 12 12 12 12 12 12 12 12 12 12 11 11 11 11 11 11 11 11 11 11 11 11 11 11 11 11 11 11 11 11 11 11 11 11 11 11 11 11 11 11 11
12 12 12 12 12 11 11 11 11 11 11 11 11 11 11 11 11 11 11 11 11 11 11 11 11 11 11 11 11 11 11 11 11 11 11 11 11 11 11 11 11 11 11
11 11 11 11 11 11 11 11 11 11 11 11 11 11 11 11 11 11 11 11 11 11 11 11 11 10 10 10 10 10 10 11 11 11 11 11 10 10 11 11 11 11 11
11 11 11 11 11 11 11 11 11 11 11 11 10 10 10 10 10 10 11 11 11 11 11 11 10 10 10 10 10 10 10 10 10 10 10 10 10 10 10 10 10 10 10
11 11 11 11 11 11 10 10 10 10 10 10 10 10 10 10 10 10 10 10 10 10 10 10 10 10 10 10 10 10 10 10 10 10 10 10 10 10 10 10 10 10 10
10 10 10 10 10 10 10 10 10 10 10 10 10 10 10 10 10 10 10 10 10 10 10 10 10 10 9 9 9 9 9 10 10 10 10 10 10 10 10 10 10 10 10
10 10 10 10 10 10 9 9 10 10 10 10 10 10 10 9 10 10 10 10 10 10 10 9 9 9 9 9 9 9 9 9 9 9 9 10 10 10 10 10 10 10 9
9 9 9 9 9 9 9 9 9 9 9 9 9 9 9 9 9 9 9 9 9 9 9 9 9 9 9 9 9 9 9 9 9 9 9 9 9 9 9 9 9 9 9
9 9 9 9 9 9 9 9 9 9 9 9 9 9 9 9 9 9 9 9 9 9 9 9 9 9 9 9 9 9 9 9 9 8 8 9 9 9 9 9 9 9 9
8 8 8 8 8 8 8 8 8 8 8 8 8 8 8 8 8 8 8 8 8 8 8 8 8 9 9 8 8 8 8 8 8 8 8 8 8 8 9 9 9 9 9
8 8 8 8 8 8 8 8 8 8 8 8 8 8 8 8 8 8 8 8 8 8 8 8 8 8 8 8 8 8 8 8 8 8 8 8 8 8 8 8 8 9 8
Wind_Speed
2 2 2 2 2 3 2 2 3 3 3 4 5 5 4 5 5 5 5 6 7 7 7 7 7 6 6 6 6 6 5 5 5 7 8 10 10 10 10 10 10 9 9
3 2 2 2 2 3 3 3 3 3 2 3 3 4 4 4 5 5 5 5 6 6 7 6 6 6 6 6 6 6 6 6 6 7 9 10 10 10 10 10 10 9 9
5 4 2 2 1 3 4 4 3 3 3 4 4 3 3 4 3 4 4 4 4 6 6 6 5 5 6 6 6 6 6 7 7 8 9 10 10 10 9 10 9 8 8
6 4 3 2 2 4 3 2 3 3 3 3 3 2 2 2 3 3 3 4 3 3 5 5 5 5 5 5 6 6 7 7 7 8 9 10 10 9 9 10 9 9 8
6 5 3 2 3 3 2 2 3 2 2 2 2 2 2 2 2 3 3 3 3 3 3 4 5 5 4 5 5 5 6 7 7 7 9 9 9 9 10 10 9 9 9
5 5 3 3 4 3 2 2 3 3 2 2 2 3 2 2 2 2 1 3 3 3 3 3 3 4 4 4 4 4 5 6 6 7 7 8 8 9 9 9 9 9 8
5 5 3 3 3 3 2 2 2 3 2 2 3 3 3 3 2 2 1 2 2 2 3 3 3 3 3 4 3 4 4 5 6 7 8 8 8 9 9 9 9 9 8
5 5 4 3 2 3 3 2 2 2 1 1 2 2 2 4 3 3 2 2 2 3 3 3 4 4 4 3 3 3 3 4 5 6 7 8 8 9 9 9 9 8 8
4 4 4 4 3 3 2 1 2 3 1 0 1 3 2 2 2 3 3 3 2 2 2 3 4 4 4 4 3 3 4 4 4 5 7 8 8 9 8 8 8 8 8
4 4 4 4 3 2 3 2 2 2 3 1 0 0 2 3 2 1 3 3 3 2 2 2 3 3 3 4 4 4 4 4 5 6 7 7 7 7 7 7 7 7 7
3 4 3 3 3 2 2 2 2 2 2 2 1 1 1 1 1 2 1 2 3 2 2 1 2 2 3 3 3 4 4 5 5 5 6 6 6 6 6 6 6 6 6
1 2 2 2 2 2 2 2 2 2 2 2 2 2 2 2 2 2 2 1 1 2 2 2 2 2 2 3 3 3 4 4 5 5 5 5 5 5 5 5 5 5 5
1 1 1 1 1 1 1 2 2 2 2 2 2 1 1 2 2 2 2 1 0 1 1 2 2 2 2 3 3 4 3 4 5 5 5 5 5 5 5 5 4 4 4
1 0 1 1 1 1 1 1 1 1 1 2 2 2 1 1 2 2 2 2 1 1 1 2 1 1 1 2 2 3 2 3 4 5 5 5 5 5 4 4 4 4 3
1 0 1 1 1 1 1 1 1 1 1 1 2 2 1 1 1 1 2 2 3 1 1 2 1 1 1 1 2 2 2 3 4 4 5 5 5 5 5 4 4 4 3
1 0 0 0 0 0 0 1 1 1 2 1 2 2 1 1 1 1 2 1 2 3 2 2 1 1 0 0 1 2 1 2 3 4 4 5 5 6 5 4 4 4 4
1 0 1 0 0 0 0 1 1 1 1 1 1 2 2 2 2 1 1 1 1 2 2 1 1 1 1 1 1 1 1 1 2 4 5 5 5 6 5 5 4 3 4
0 0 0 1 1 1 1 1 2 2 2 2 3 2 3 2 2 2 2 2 2 2 3 2 1 0 0 1 0 1 0 0 1 3 4 5 6 6 6 5 4 4 4
1 0 0 0 1 1 1 2 2 2 3 3 3 3 3 2 2 2 2 2 2 2 2 3 1 0 0 0 1 0 0 1 0 1 3 4 5 7 7 6 5 5 5
0 0 0 1 2 2 1 2 2 2 2 2 2 3 3 3 3 3 3 3 2 2 2 2 2 1 0 0 1 1 0 1 1 1 1 2 4 5 6 6 6 6 6
0 0 0 1 1 1 1 2 2 1 1 1 1 2 2 3 3 3 2 3 3 3 3 2 2 1 1 1 2 1 1 1 1 0 1 1 2 2 4 5 6 6 6
0 1 0 1 1 1 1 0 1 2 2 2 1 2 2 2 2 3 4 4 4 5 5 4 3 4 4 3 2 2 2 1 2 1 1 2 1 2 4 5 6 6 7
0 0 1 0 1 2 2 1 1 2 2 2 2 2 2 2 2 2 3 3 4 5 6 5 5 6 5 5 5 3 3 3 3 2 2 2 1 3 4 6 6 7 8
1 0 1 1 1 2 3 2 1 2 2 2 2 2 2 2 2 1 1 1 2 3 4 4 5 6 6 5 6 5 4 2 1 1 2 2 2 3 3 5 7 8 8
1 1 1 1 1 3 4 3 2 1 1 2 2 2 2 2 3 1 2 2 2 3 2 3 3 3 4 5 5 4 3 2 1 2 2 2 2 2 2 3 5 7 8
1 0 1 1 1 2 4 4 3 0 0 1 1 2 3 2 2 1 3 3 3 3 1 1 1 1 1 3 5 5 5 3 2 3 3 3 2 1 1 2 2 4 6
Wind_Direction
133 124 111 98 88 84 85 80 73 69 74 78 83 86 85 85 79 75 66 72 80 85 90 90 90 90 88 85 83 83 88 96 111 125 134 132 128 123 120 119 119 117 117
121 119 112 89 82 92 96 97 89 80 72 81 74 81 87 92 86 82 73 69 72 80 82 81 83 88 89 85 81 79 82 85 103 119 128 130 128 125 123 122 119 118 119
121 114 113 101 90 97 95 92 83 79 75 73 70 70 79 85 87 82 76 67 66 72 81 81 82 85 86 85 83 80 82 87 96 113 123 127 127 125 125 122 121 119 118
127 112 114 111 99 95 95 97 86 80 68 66 63 58 66 73 76 88 82 72 66 64 67 69 69 74 80 83 86 88 86 86 92 108 117 123 126 126 126 124 122 118 117
125 114 116 112 99 90 91 105 90 96 92 74 70 57 49 55 55 77 69 69 70 70 70 67 61 59 67 76 83 93 95 91 96 111 118 123 125 125 124 122 120 117 118
112 106 111 102 97 94 81 90 96 81 93 97 81 55 26 20 38 53 64 65 63 67 83 79 65 51 53 64 80 89 98 100 100 110 122 123 125 125 126 124 123 116 113
104 101 109 103 100 105 113 112 108 89 69 75 74 37 11 11 19 17 34 56 48 59 85 81 73 62 46 45 65 84 94 103 104 105 109 116 121 126 127 127 126 120 115
96 103 110 122 113 103 89 91 105 97 75 83 109 86 20 356 355 7 17 45 28 46 58 68 70 70 67 60 61 75 96 108 109 111 111 113 118 119 122 125 126 124 120
91 91 106 117 124 120 125 122 122 129 157 267 120 135 142 219 315 344 0 21 20 32 37 64 72 73 77 72 71 83 90 106 122 123 121 116 116 119 117 123 124 122 119
80 89 97 110 125 126 132 139 119 125 139 153 357 32 155 158 155 338 341 357 19 34 24 53 66 66 75 81 86 99 102 105 115 117 122 120 120 121 116 114 119 122 122
61 76 86 96 112 126 135 123 114 116 125 138 150 140 86 82 120 151 260 332 5 3 9 26 71 71 74 90 98 107 117 121 120 119 123 126 127 129 125 119 117 127 127
33 50 80 87 101 125 140 144 142 141 140 132 133 136 143 150 164 152 183 235 329 327 344 11 46 62 73 85 94 103 130 139 139 135 130 129 128 130 131 129 128 133 137
19 350 68 90 106 139 148 139 139 156 151 142 149 159 156 161 161 150 148 180 206 313 349 7 9 46 67 82 85 87 117 141 149 147 140 140 141 136 137 140 141 141 146
239 252 80 95 87 98 108 130 143 185 152 153 158 152 156 176 156 151 162 156 131 356 2 310 341 7 37 86 87 93 106 150 161 163 160 159 156 149 146 146 146 151 149
245 349 81 95 39 51 79 128 148 198 164 166 172 162 163 192 174 174 163 154 152 172 259 269 286 323 337 106 89 98 111 162 163 167 168 169 166 162 159 153 157 159 156
328 22 110 136 138 17 39 128 146 176 148 185 186 164 179 200 194 186 186 177 154 164 202 246 247 289 272 88 74 84 118 155 171 177 179 179 179 173 167 164 166 172 170
306 236 210 196 176 184 217 134 189 190 180 201 200 185 207 199 184 196 186 167 168 156 180 264 300 346 43 41 64 83 90 143 192 200 193 189 188 183 175 170 171 172 175
289 229 202 157 189 195 197 186 209 213 205 211 218 202 219 212 207 203 186 187 189 182 169 195 260 314 313 248 156 117 92 18 230 220 205 203 198 194 188 181 180 178 182
292 12 80 177 230 228 226 231 219 221 221 224 218 209 217 204 223 222 201 196 201 194 166 166 199 231 309 344 70 15 25 17 319 220 210 214 211 208 203 198 200 203 201
263 238 174 258 255 239 225 228 222 217 222 236 229 220 218 207 212 214 205 202 189 174 167 164 172 193 246 313 129 161 316 316 294 259 251 226 219 211 210 211 214 215 210
267 285 75 336 310 246 225 189 183 182 180 197 247 239 229 227 221 213 213 198 180 175 174 176 182 183 205 188 202 201 209 244 283 294 321 268 224 216 220 221 219 216 212
359 27 15 345 344 309 327 158 161 172 182 188 228 273 259 236 245 240 233 204 184 182 188 188 198 199 211 208 192 179 176 178 267 263 195 262 205 234 236 221 225 226 222
357 50 331 299 297 305 337 9 169 172 185 204 216 240 271 275 270 243 242 224 210 202 190 185 196 208 205 200 182 189 203 203 228 224 169 239 247 251 250 233 233 233 233
336 287 319 300 298 312 337 349 58 168 191 216 225 227 230 260 268 226 192 203 233 236 224 206 207 214 212 198 189 189 195 211 255 240 168 211 240 254 260 250 242 238 240
334 319 2 6 334 314 340 359 48 163 214 240 246 239 229 236 259 214 168 202 239 269 270 251 224 209 205 192 168 148 149 149 244 246 202 194 226 255 268 260 250 241 239
273 301 351 345 336 321 350 14 39 132 217 264 269 260 259 261 271 216 183 188 215 245 260 297 301 280 229 200 185 181 182 184 208 230 214 192 206 185 265 264 247 244 238
Height
1528 1528 1528 1528 1528 1528 1528 1528 1528 1528 1528 1529 1529 1529 1529 1529 1528 1528 1527 1527 1527 1526 1526 1525 1525 1524 1523 1522 1521 1520 1518 1515 1513 1512 1513 1516 1519 1521 1523 1525 1526 1527 1528
1528 1528 1528 1528 1528 1528 1528 1528 1528 1528 1529 1529 1529 1529 1529 1529 1529 1529 1528 1528 1527 1527 1526 1526 1525 1525 1524 1523 1522 1520 1518 1515 1512 1511 1512 1515 1519 1521 1523 1525 1526 1527 1528
1528 1528 1528 1528 1528 1528 1528 1528 1529 1529 1529 1529 1529 1530 1530 1529 1529 1529 1529 1528 1528 1527 1527 1526 1526 1525 1524 1524 1522 1521 1518 1516 1514 1513 1513 1516 1519 1522 1524 1525 1527 1528 1529
1528 1528 1528 1528 1528 1528 1528 1528 1529 1529 1529 1529 1529 1530 1530 1530 1530 1529 1529 1529 1528 1528 1527 1527 1526 1526 1525 1524 1523 1522 1520 1519 1517 1516 1517 1518 1521 1523 1524 1526 1527 1528 1529
1528 1528 1528 1528 1528 1528 1528 1528 1528 1529 1529 1529 1529 1530 1530 1530 1530 1530 1529 1529 1528 1528 1528 1527 1527 1526 1526 1525 1524 1523 1522 1521 1520 1519 1520 1521 1523 1524 1525 1526 1527 1528 1529
1528 1527 1527 1527 1528 1528 1528 1528 1528 1528 1529 1529 1529 1529 1530 1530 1530 1529 1529 1529 1528 1528 1528 1527 1527 1526 1526 1525 1525 1524 1523 1523 1522 1522 1522 1523 1524 1525 1526 1527 1528 1529 1530
1527 1527 1527 1527 1527 1527 1528 1528 1528 1528 1528 1528 1529 1529 1529 1530 1530 1529 1529 1529 1528 1528 1527 1527 1527 1526 1526 1526 1525 1525 1524 1524 1524 1523 1524 1524 1525 1526 1526 1527 1528 1529 1529
1527 1527 1527 1527 1527 1527 1527 1527 1527 1527 1528 1528 1529 1528 1529 1530 1529 1529 1529 1528 1528 1528 1527 1527 1527 1526 1526 1526 1526 1525 1525 1525 1525 1525 1525 1525 1526 1526 1527 1527 1528 1529 1530
1526 1526 1526 1526 1526 1526 1526 1527 1527 1527 1527 1528 1528 1529 1529 1528 1529 1529 1528 1528 1528 1528 1527 1527 1527 1526 1526 1526 1526 1526 1526 1526 1526 1526 1526 1526 1526 1527 1527 1528 1529 1529 1530
1525 1525 1525 1525 1525 1525 1526 1526 1526 1526 1526 1526 1527 1527 1528 1528 1528 1528 1528 1528 1527 1527 1527 1527 1526 1526 1526 1526 1526 1526 1526 1526 1526 1526 1526 1526 1527 1527 1528 1528 1529 1529 1530
1524 1524 1524 1524 1524 1524 1525 1525 1525 1525 1525 1525 1525 1526 1526 1527 1527 1527 1527 1527 1527 1527 1526 1526 1526 1526 1525 1525 1525 1525 1526 1526 1526 1526 1526 1527 1527 1527 1528 1529 1529 1530 1530
1523 1523 1523 1523 1523 1523 1524 1524 1524 1524 1524 1524 1524 1525 1525 1525 1525 1525 1525 1525 1525 1526 1526 1525 1525 1525 1525 1525 1525 1525 1525 1525 1526 1526 1526 1526 1527 1527 1528 1528 1529 1529 1530
1521 1521 1522 1522 1522 1522 1522 1523 1523 1523 1523 1523 1523 1524 1524 1524 1524 1524 1524 1524 1524 1524 1524 1525 1524 1524 1524 1524 1524 1524 1524 1525 1525 1525 1526 1526 1526 1527 1528 1528 1528 1528 1529
1520 1521 1521 1521 1521 1521 1521 1521 1521 1521 1522 1522 1522 1522 1522 1523 1523 1523 1523 1523 1523 1523 1523 1523 1523 1523 1523 1523 1523 1523 1523 1524 1524 1525 1525 1526 1526 1527 1527 1527 1528 1528 1528
1519 1519 1519 1519 1519 1519 1519 1519 1519 1520 1520 1520 1520 1521 1521 1521 1521 1522 1522 1522 1522 1521 1522 1522 1522 1522 1522 1522 1522 1522 1522 1523 1523 1524 1524 1525 1525 1526 1526 1526 1527 1527 1526
1518 1517 1517 1517 1517 1517 1517 1517 1517 1518 1518 1518 1518 1519 1519 1519 1520 1520 1520 1520 1521 1521 1520 1520 1521 1521 1521 1521 1521 1521 1521 1521 1522 1522 1523 1524 1524 1525 1525 1525 1525 1525 1526
1516 1516 1516 1515 1515 1515 1515 1515 1515 1516 1516 1516 1516 1517 1517 1517 1517 1518 1519 1519 1519 1519 1518 1519 1519 1519 1519 1519 1519 1520 1520 1520 1521 1521 1522 1522 1523 1524 1524 1524 1524 1524 1524
1514 1514 1513 1513 1513 1513 1513 1513 1513 1513 1513 1514 1514 1514 1515 1515 1515 1516 1516 1516 1517 1517 1517 1516 1517 1517 1518 1518 1518 1518 1519 1519 1519 1520 1520 1521 1521 1522 1522 1522 1523 1523 1523
1512 1511 1511 1511 1511 1511 1510 1510 1510 1510 1511 1511 1512 1512 1512 1513 1513 1513 1514 1514 1514 1514 1515 1515 1515 1515 1516 1516 1516 1517 1517 1517 1517 1518 1518 1518 1519 1520 1520 1520 1521 1521 1521
1509 1509 1508 1508 1508 1508 1508 1507 1508 1508 1508 1508 1509 1510 1510 1510 1510 1511 1511 1511 1511 1512 1512 1512 1512 1513 1513 1514 1514 1514 1514 1515 1515 1515 1516 1516 1517 1517 1518 1518 1518 1519 1519
1507 1507 1506 1506 1505 1505 1505 1505 1504 1505 1505 1505 1506 1506 1507 1507 1508 1508 1508 1508 1508 1508 1509 1509 1510 1510 1511 1511 1511 1512 1512 1512 1513 1513 1513 1514 1514 1515 1515 1515 1515 1516 1516
1505 1504 1504 1503 1502 1502 1502 1501 1502 1501 1502 1502 1503 1503 1503 1504 1504 1505 1505 1505 1505 1506 1506 1506 1506 1507 1507 1508 1509 1509 1509 1510 1510 1511 1511 1512 1512 1512 1512 1513 1513 1513 1514
1502 1501 1501 1500 1499 1499 1499 1499 1499 1499 1499 1499 1500 1500 1500 1500 1501 1501 1501 1501 1502 1502 1503 1503 1503 1504 1505 1505 1506 1506 1507 1507 1508 1508 1509 1509 1509 1510 1510 1510 1511 1511 1511
1499 1499 1498 1497 1497 1496 1496 1496 1495 1496 1496 1496 1496 1497 1497 1497 1497 1497 1497 1498 1498 1498 1499 1500 1500 1501 1502 1503 1503 1504 1504 1505 1506 1506 1506 1506 1506 1507 1508 1508 1508 1509 1509
1496 1496 1495 1494 1494 1493 1493 1492 1492 1492 1493 1493 1493 1494 1494 1494 1494 1494 1494 1494 1494 1495 1495 1496 1497 1498 1499 1499 1500 1501 1501 1501 1501 1502 1503 1503 1503 1503 1504 1505 1505 1506 1506
1494 1493 1492 1492 1491 1490 1490 1489 1489 1489 1489 1489 1490 1490 1490 1490 1491 1490 1491 1491 1491 1491 1492 1492 1493 1494 1495 1496 1496 1497 1497 1498 1498 1498 1499 1500 1500 1501 1500 1501 1501 1502 1502